This is the latest recevied weather packets stored in our database for station/object KC5DAQ-29. If no packets are shown the sender has not sent any weather packets the latest 1 day(s).
| Time | Temp. | Humidity | Pressure | Rain* | Wind** | Luminosity | Snow |
|---|---|---|---|---|---|---|---|
| 1778029204 | 26.67° C | 100% | 1004.7 hPa | 0 mm | 0.45 m/s, 157° | 0 W/m² | - |
| 1778029144 | 26.67° C | 100% | 1004.6 hPa | 0 mm | 0.45 m/s, 162° | 0 W/m² | - |
| 1778029083 | 26.67° C | 100% | 1004.7 hPa | 0 mm | 0.89 m/s, 161° | 0 W/m² | - |
| 1778029022 | 26.67° C | 100% | 1004.7 hPa | 0 mm | 1.34 m/s, 162° | 0 W/m² | - |
| 1778028963 | 26.67° C | 100% | 1004.6 hPa | 0 mm | 1.79 m/s, 134° | 0 W/m² | - |
| 1778028902 | 26.67° C | 100% | 1004.8 hPa | 0 mm | 0.89 m/s, 161° | 0 W/m² | - |
| 1778028842 | 26.67° C | 100% | 1004.7 hPa | 0 mm | 0.89 m/s, 137° | 0 W/m² | - |
| 1778028783 | 26.67° C | 100% | 1004.7 hPa | 0 mm | 1.34 m/s, 179° | 0 W/m² | - |
| 1778028723 | 26.67° C | 100% | 1004.7 hPa | 0 mm | 1.79 m/s, 135° | 0 W/m² | - |
| 1778028663 | 26.67° C | 100% | 1004.7 hPa | 0 mm | 0.89 m/s, 159° | 5 W/m² | - |
| 1778028603 | 26.67° C | 100% | 1004.7 hPa | 0 mm | 0.45 m/s, 154° | 5 W/m² | - |
| 1778028543 | 26.67° C | 100% | 1004.7 hPa | 0 mm | 0.89 m/s, 165° | 7 W/m² | - |
| 1778028484 | 26.67° C | 100% | 1004.7 hPa | 0 mm | 0.89 m/s, 141° | 7 W/m² | - |
| 1778028422 | 26.67° C | 100% | 1004.6 hPa | 0 mm | 0.45 m/s, 157° | 7 W/m² | - |
| 1778028364 | 26.67° C | 100% | 1004.6 hPa | 0 mm | 0.45 m/s, 155° | 7 W/m² | - |
| 1778028303 | 27.22° C | 100% | 1004.6 hPa | 0 mm | 0.89 m/s, 157° | 7 W/m² | - |
| 1778028243 | 27.22° C | 100% | 1004.6 hPa | 0 mm | 0.45 m/s, 165° | 9 W/m² | - |
| 1778028182 | 27.22° C | 100% | 1004.5 hPa | 0 mm | 0.45 m/s, 135° | 9 W/m² | - |
| 1778028123 | 27.22° C | 100% | 1004.5 hPa | 0 mm | 0.89 m/s, 169° | 9 W/m² | - |
| 1778028062 | 27.22° C | 100% | 1004.6 hPa | 0 mm | 1.34 m/s, 164° | 9 W/m² | - |
| 1778028004 | 27.22° C | 100% | 1004.5 hPa | 0 mm | 1.34 m/s, 141° | - | - |
| 1778027672 | 26.67° C | 100% | 1004.5 hPa | 0 mm | 0.89 m/s, 176° | - | - |
| 1778027613 | 26.67° C | 100% | 1004.5 hPa | 0 mm | 0.89 m/s, 176° | 26 W/m² | - |
| 1778027552 | 26.67° C | 100% | 1004.5 hPa | 0 mm | 0.89 m/s, 176° | 26 W/m² | - |
| 1778027492 | 26.67° C | 100% | 1004.4 hPa | 0 mm | 0.89 m/s, 176° | 26 W/m² | - |
* Rain latest hour (hover to see other rain measurements)
** Current wind speed in m/s (hover to see current wind gust speed)